owner,sensor,date,latitude,longitude,vertical_datum,sea_water_practical_salinity,qcFlag 
DISL,ioos:station:DISL:DISL:1,2010-09-01T00:00:00Z,30.2513,-88.0778,6.79,23.01,1111122 
DISL,ioos:station:DISL:DISL:1,2010-09-01T00:30:00Z,30.2513,-88.0778,6.885,23.02,1111122 
DISL,ioos:station:DISL:DISL:1,2010-09-01T01:00:00Z,30.2513,-88.0778,6.945,22.9,1111122 
DISL,ioos:station:DISL:DISL:1,2010-09-01T01:30:00Z,30.2513,-88.0778,6.998,22.9,1111122 
DISL,ioos:station:DISL:DISL:1,2010-09-01T02:00:00Z,30.2513,-88.0778,7.08,22.86,1111122 
DISL,ioos:station:DISL:DISL:1,2010-09-01T02:30:00Z,30.2513,-88.0778,7.17,22.89,1111122 
DISL,ioos:station:DISL:DISL:1,2010-09-01T03:00:00Z,30.2513,-88.0778,7.3,22.89,1111122 
DISL,ioos:station:DISL:DISL:1,2010-09-01T03:30:00Z,30.2513,-88.0778,7.43,23.04,1111122 
DISL,ioos:station:DISL:DISL:1,2010-09-01T04:00:00Z,30.2513,-88.0778,7.47,24.13,1111122 
DISL,ioos:station:DISL:DISL:1,2010-09-01T04:30:00Z,30.2513,-88.0778,7.47,24.29,1111122 
DISL,ioos:station:DISL:DISL:1,2010-09-01T05:00:00Z,30.2513,-88.0778,7.61,24.22,1111122 
DISL,ioos:station:DISL:DISL:1,2010-09-01T05:30:00Z,30.2513,-88.0778,7.68,25.15,1111122 
DISL,ioos:station:DISL:DISL:1,2010-09-01T06:00:00Z,30.2513,-88.0778,7.74,24.05,1111122 
DISL,ioos:station:DISL:DISL:1,2010-09-01T06:30:00Z,30.2513,-88.0778,7.79,24.44,1111122 
DISL,ioos:station:DISL:DISL:1,2010-09-01T07:00:00Z,30.2513,-88.0778,7.84,25.07,1111122 
DISL,ioos:station:DISL:DISL:1,2010-09-01T07:30:00Z,30.2513,-88.0778,7.89,24.61,1111122 
DISL,ioos:station:DISL:DISL:1,2010-09-01T08:00:00Z,30.2513,-88.0778,7.89,22.86,1111122 
DISL,ioos:station:DISL:DISL:1,2010-09-01T08:30:00Z,30.2513,-88.0778,7.89,22.49,1111122 
DISL,ioos:station:DISL:DISL:1,2010-09-01T09:00:00Z,30.2513,-88.0778,7.89,22.62,1111122 
DISL,ioos:station:DISL:DISL:1,2010-09-01T09:30:00Z,30.2513,-88.0778,7.92,21.49,1111122 
DISL,ioos:station:DISL:DISL:1,2010-09-01T10:00:00Z,30.2513,-88.0778,7.8,20.7,1111122 
DISL,ioos:station:DISL:DISL:1,2010-09-01T10:30:00Z,30.2513,-88.0778,7.8,20.43,1111122 
DISL,ioos:station:DISL:DISL:1,2010-09-01T11:00:00Z,30.2513,-88.0778,7.79,20.3,1111122 
DISL,ioos:station:DISL:DISL:1,2010-09-01T11:30:00Z,30.2513,-88.0778,7.64,20.28,1111122 
DISL,ioos:station:DISL:DISL:1,2010-09-01T12:00:00Z,30.2513,-88.0778,7.61,20.18,1111122 
DISL,ioos:station:DISL:DISL:1,2010-09-01T12:30:00Z,30.2513,-88.0778,7.5,20.04,1111122 
DISL,ioos:station:DISL:DISL:1,2010-09-01T13:00:00Z,30.2513,-88.0778,7.42,20.04,1111122 
DISL,ioos:station:DISL:DISL:1,2010-09-01T13:30:00Z,30.2513,-88.0778,7.35,20.05,1111122 
DISL,ioos:station:DISL:DISL:1,2010-09-01T14:00:00Z,30.2513,-88.0778,7.2,20.06,1111122 
DISL,ioos:station:DISL:DISL:1,2010-09-01T14:30:00Z,30.2513,-88.0778,7.15,20.36,1111122 
DISL,ioos:station:DISL:DISL:1,2010-09-01T15:00:00Z,30.2513,-88.0778,7.13,21.0,1111122 
DISL,ioos:station:DISL:DISL:1,2010-09-01T15:30:00Z,30.2513,-88.0778,6.994,21.06,1111122 
DISL,ioos:station:DISL:DISL:1,2010-09-01T16:00:00Z,30.2513,-88.0778,6.88,21.3,1111122 
DISL,ioos:station:DISL:DISL:1,2010-09-01T16:30:00Z,30.2513,-88.0778,6.805,21.53,1111122 
DISL,ioos:station:DISL:DISL:1,2010-09-01T17:00:00Z,30.2513,-88.0778,6.77,21.54,1111122 
DISL,ioos:station:DISL:DISL:1,2010-09-01T17:30:00Z,30.2513,-88.0778,6.652,21.48,1111122 
DISL,ioos:station:DISL:DISL:1,2010-09-01T18:00:00Z,30.2513,-88.0778,6.598,21.64,1111122 
DISL,ioos:station:DISL:DISL:1,2010-09-01T18:30:00Z,30.2513,-88.0778,6.543,21.88,1111122 
DISL,ioos:station:DISL:DISL:1,2010-09-01T19:00:00Z,30.2513,-88.0778,6.496,21.68,1111122 
DISL,ioos:station:DISL:DISL:1,2010-09-01T19:30:00Z,30.2513,-88.0778,6.485,21.32,1111122 
DISL,ioos:station:DISL:DISL:1,2010-09-01T20:00:00Z,30.2513,-88.0778,6.378,20.92,1111122 
DISL,ioos:station:DISL:DISL:1,2010-09-01T20:30:00Z,30.2513,-88.0778,6.396,20.85,1111122 
DISL,ioos:station:DISL:DISL:1,2010-09-01T21:00:00Z,30.2513,-88.0778,6.349,20.65,1111122 
DISL,ioos:station:DISL:DISL:1,2010-09-01T21:30:00Z,30.2513,-88.0778,6.326,20.46,1111122 
DISL,ioos:station:DISL:DISL:1,2010-09-01T22:00:00Z,30.2513,-88.0778,6.345,20.33,1111122 
DISL,ioos:station:DISL:DISL:1,2010-09-01T22:30:00Z,30.2513,-88.0778,6.413,20.14,1111122 
DISL,ioos:station:DISL:DISL:1,2010-09-01T23:00:00Z,30.2513,-88.0778,6.402,20.53,1111122 
DISL,ioos:station:DISL:DISL:1,2010-09-01T23:30:00Z,30.2513,-88.0778,6.486,20.86,1111122 
DISL,ioos:station:DISL:DISL:1,2010-09-02T00:00:00Z,30.2513,-88.0778,6.503,21.35,1111122 
DISL,ioos:station:DISL:DISL:1,2010-09-02T00:30:00Z,30.2513,-88.0778,6.565,21.58,1111122 
DISL,ioos:station:DISL:DISL:1,2010-09-02T01:00:00Z,30.2513,-88.0778,6.644,21.59,1111122 
DISL,ioos:station:DISL:DISL:1,2010-09-02T01:30:00Z,30.2513,-88.0778,6.721,21.68,1111122 
DISL,ioos:station:DISL:DISL:1,2010-09-02T02:00:00Z,30.2513,-88.0778,6.852,21.49,1111122 
DISL,ioos:station:DISL:DISL:1,2010-09-02T02:30:00Z,30.2513,-88.0778,6.889,21.24,1111122 
DISL,ioos:station:DISL:DISL:1,2010-09-02T03:00:00Z,30.2513,-88.0778,7.01,20.83,1111122 
DISL,ioos:station:DISL:DISL:1,2010-09-02T03:30:00Z,30.2513,-88.0778,7.12,20.56,1111122 
DISL,ioos:station:DISL:DISL:1,2010-09-02T04:00:00Z,30.2513,-88.0778,7.2,20.82,1111122 
DISL,ioos:station:DISL:DISL:1,2010-09-02T04:30:00Z,30.2513,-88.0778,7.24,21.33,1111122 
DISL,ioos:station:DISL:DISL:1,2010-09-02T05:00:00Z,30.2513,-88.0778,7.35,21.81,1111122 
DISL,ioos:station:DISL:DISL:1,2010-09-02T05:30:00Z,30.2513,-88.0778,7.43,21.66,1111122 
DISL,ioos:station:DISL:DISL:1,2010-09-02T06:00:00Z,30.2513,-88.0778,7.54,21.33,1111122 
DISL,ioos:station:DISL:DISL:1,2010-09-02T06:30:00Z,30.2513,-88.0778,7.64,22.11,1111122 
DISL,ioos:station:DISL:DISL:1,2010-09-02T07:00:00Z,30.2513,-88.0778,7.65,22.42,1111122 
DISL,ioos:station:DISL:DISL:1,2010-09-02T07:30:00Z,30.2513,-88.0778,7.76,21.68,1111122 
DISL,ioos:station:DISL:DISL:1,2010-09-02T08:00:00Z,30.2513,-88.0778,7.83,22.88,1111122 
DISL,ioos:station:DISL:DISL:1,2010-09-02T08:30:00Z,30.2513,-88.0778,7.85,22.99,1111122 
DISL,ioos:station:DISL:DISL:1,2010-09-02T09:00:00Z,30.2513,-88.0778,7.92,23.21,1111122 
DISL,ioos:station:DISL:DISL:1,2010-09-02T09:30:00Z,30.2513,-88.0778,7.95,23.09,1111122 
DISL,ioos:station:DISL:DISL:1,2010-09-02T10:00:00Z,30.2513,-88.0778,7.93,22.99,1111122 
DISL,ioos:station:DISL:DISL:1,2010-09-02T10:30:00Z,30.2513,-88.0778,7.94,21.96,1111122 
DISL,ioos:station:DISL:DISL:1,2010-09-02T11:00:00Z,30.2513,-88.0778,7.88,21.53,1111122 
DISL,ioos:station:DISL:DISL:1,2010-09-02T11:30:00Z,30.2513,-88.0778,7.87,21.57,1111122 
DISL,ioos:station:DISL:DISL:1,2010-09-02T12:00:00Z,30.2513,-88.0778,7.75,21.56,1111122 
DISL,ioos:station:DISL:DISL:1,2010-09-02T12:30:00Z,30.2513,-88.0778,7.7,21.67,1111122 
DISL,ioos:station:DISL:DISL:1,2010-09-02T13:00:00Z,30.2513,-88.0778,7.6,21.75,1111122 
DISL,ioos:station:DISL:DISL:1,2010-09-02T13:30:00Z,30.2513,-88.0778,7.51,20.76,1111122 
DISL,ioos:station:DISL:DISL:1,2010-09-02T14:00:00Z,30.2513,-88.0778,7.5,20.66,1111122 
DISL,ioos:station:DISL:DISL:1,2010-09-02T14:30:00Z,30.2513,-88.0778,7.37,20.76,1111122 
DISL,ioos:station:DISL:DISL:1,2010-09-02T15:00:00Z,30.2513,-88.0778,7.28,20.75,1111122 
DISL,ioos:station:DISL:DISL:1,2010-09-02T15:30:00Z,30.2513,-88.0778,7.18,20.87,1111122 
DISL,ioos:station:DISL:DISL:1,2010-09-02T16:00:00Z,30.2513,-88.0778,7.08,20.91,1111122 
DISL,ioos:station:DISL:DISL:1,2010-09-02T16:30:00Z,30.2513,-88.0778,7.01,20.97,1111122 
DISL,ioos:station:DISL:DISL:1,2010-09-02T17:00:00Z,30.2513,-88.0778,6.855,21.25,1111122 
DISL,ioos:station:DISL:DISL:1,2010-09-02T17:30:00Z,30.2513,-88.0778,6.779,21.57,1111122 
DISL,ioos:station:DISL:DISL:1,2010-09-02T18:00:00Z,30.2513,-88.0778,6.666,21.67,1111122 
DISL,ioos:station:DISL:DISL:1,2010-09-02T18:30:00Z,30.2513,-88.0778,6.628,21.17,1111122 
DISL,ioos:station:DISL:DISL:1,2010-09-02T19:00:00Z,30.2513,-88.0778,6.512,20.71,1111122 
DISL,ioos:station:DISL:DISL:1,2010-09-02T19:30:00Z,30.2513,-88.0778,6.46,20.41,1111122 
DISL,ioos:station:DISL:DISL:1,2010-09-02T20:00:00Z,30.2513,-88.0778,6.413,19.69,1111122 
DISL,ioos:station:DISL:DISL:1,2010-09-02T20:30:00Z,30.2513,-88.0778,6.336,19.51,1111122 
DISL,ioos:station:DISL:DISL:1,2010-09-02T21:00:00Z,30.2513,-88.0778,6.303,19.39,1111122 
DISL,ioos:station:DISL:DISL:1,2010-09-02T21:30:00Z,30.2513,-88.0778,6.227,19.39,1111122 
DISL,ioos:station:DISL:DISL:1,2010-09-02T22:00:00Z,30.2513,-88.0778,6.335,19.3,1111122 
DISL,ioos:station:DISL:DISL:1,2010-09-02T22:30:00Z,30.2513,-88.0778,6.225,19.26,1111122 
DISL,ioos:station:DISL:DISL:1,2010-09-02T23:00:00Z,30.2513,-88.0778,6.276,19.55,1111122 
DISL,ioos:station:DISL:DISL:1,2010-09-02T23:30:00Z,30.2513,-88.0778,6.318,19.56,1111122 
DISL,ioos:station:DISL:DISL:1,2010-09-03T00:00:00Z,30.2513,-88.0778,6.388,19.63,1111122 
DISL,ioos:station:DISL:DISL:1,2010-09-03T00:30:00Z,30.2513,-88.0778,6.409,19.68,1111122 
DISL,ioos:station:DISL:DISL:1,2010-09-03T01:00:00Z,30.2513,-88.0778,6.443,19.68,1111122 
DISL,ioos:station:DISL:DISL:1,2010-09-03T01:30:00Z,30.2513,-88.0778,6.563,19.48,1111122 
DISL,ioos:station:DISL:DISL:1,2010-09-03T02:00:00Z,30.2513,-88.0778,6.594,19.42,1111122 
DISL,ioos:station:DISL:DISL:1,2010-09-03T02:30:00Z,30.2513,-88.0778,6.691,19.75,1111122 
DISL,ioos:station:DISL:DISL:1,2010-09-03T03:00:00Z,30.2513,-88.0778,6.764,20.08,1111122 
DISL,ioos:station:DISL:DISL:1,2010-09-03T03:30:00Z,30.2513,-88.0778,6.835,20.59,1111122 
DISL,ioos:station:DISL:DISL:1,2010-09-03T04:00:00Z,30.2513,-88.0778,6.924,20.94,1111122 
DISL,ioos:station:DISL:DISL:1,2010-09-03T04:30:00Z,30.2513,-88.0778,7.02,21.05,1111122 
DISL,ioos:station:DISL:DISL:1,2010-09-03T05:00:00Z,30.2513,-88.0778,7.09,21.36,1111122 
DISL,ioos:station:DISL:DISL:1,2010-09-03T05:30:00Z,30.2513,-88.0778,7.19,21.32,1111122 
DISL,ioos:station:DISL:DISL:1,2010-09-03T06:00:00Z,30.2513,-88.0778,7.28,21.33,1111122 
DISL,ioos:station:DISL:DISL:1,2010-09-03T06:30:00Z,30.2513,-88.0778,7.38,21.57,1111122 
DISL,ioos:station:DISL:DISL:1,2010-09-03T07:00:00Z,30.2513,-88.0778,7.45,21.7,1111122 
DISL,ioos:station:DISL:DISL:1,2010-09-03T07:30:00Z,30.2513,-88.0778,7.48,21.57,1111122 
DISL,ioos:station:DISL:DISL:1,2010-09-03T08:00:00Z,30.2513,-88.0778,7.57,21.63,1111122 
DISL,ioos:station:DISL:DISL:1,2010-09-03T08:30:00Z,30.2513,-88.0778,7.58,21.69,1111122 
DISL,ioos:station:DISL:DISL:1,2010-09-03T09:00:00Z,30.2513,-88.0778,7.59,21.8,1111122 
DISL,ioos:station:DISL:DISL:1,2010-09-03T09:30:00Z,30.2513,-88.0778,7.64,21.85,1111122 
DISL,ioos:station:DISL:DISL:1,2010-09-03T10:00:00Z,30.2513,-88.0778,7.61,21.97,1111122 
DISL,ioos:station:DISL:DISL:1,2010-09-03T10:30:00Z,30.2513,-88.0778,7.58,22.07,1111122 
DISL,ioos:station:DISL:DISL:1,2010-09-03T11:00:00Z,30.2513,-88.0778,7.58,22.21,1111122 
DISL,ioos:station:DISL:DISL:1,2010-09-03T11:30:00Z,30.2513,-88.0778,7.51,22.25,1111122 
DISL,ioos:station:DISL:DISL:1,2010-09-03T12:00:00Z,30.2513,-88.0778,7.5,22.31,1111122 
DISL,ioos:station:DISL:DISL:1,2010-09-03T12:30:00Z,30.2513,-88.0778,7.5,22.15,1111122 
DISL,ioos:station:DISL:DISL:1,2010-09-03T13:00:00Z,30.2513,-88.0778,7.45,22.22,1111122 
DISL,ioos:station:DISL:DISL:1,2010-09-03T13:30:00Z,30.2513,-88.0778,7.36,22.35,1111122 
DISL,ioos:station:DISL:DISL:1,2010-09-03T14:00:00Z,30.2513,-88.0778,7.28,22.29,1111122 
DISL,ioos:station:DISL:DISL:1,2010-09-03T14:30:00Z,30.2513,-88.0778,7.19,22.2,1111122 
DISL,ioos:station:DISL:DISL:1,2010-09-03T15:00:00Z,30.2513,-88.0778,7.06,22.25,1111122 
DISL,ioos:station:DISL:DISL:1,2010-09-03T15:30:00Z,30.2513,-88.0778,6.965,22.3,1111122 
DISL,ioos:station:DISL:DISL:1,2010-09-03T16:00:00Z,30.2513,-88.0778,6.853,21.59,1111122 
DISL,ioos:station:DISL:DISL:1,2010-09-03T16:30:00Z,30.2513,-88.0778,6.745,20.36,1111122 
DISL,ioos:station:DISL:DISL:1,2010-09-03T17:00:00Z,30.2513,-88.0778,6.692,20.33,1111122 
DISL,ioos:station:DISL:DISL:1,2010-09-03T17:30:00Z,30.2513,-88.0778,6.592,20.56,1111122 
DISL,ioos:station:DISL:DISL:1,2010-09-03T18:00:00Z,30.2513,-88.0778,6.551,20.97,1111122 
DISL,ioos:station:DISL:DISL:1,2010-09-03T18:30:00Z,30.2513,-88.0778,6.413,20.4,1111122 
DISL,ioos:station:DISL:DISL:1,2010-09-03T19:00:00Z,30.2513,-88.0778,6.348,19.48,1111122 
DISL,ioos:station:DISL:DISL:1,2010-09-03T19:30:00Z,30.2513,-88.0778,6.288,19.0,1111122 
DISL,ioos:station:DISL:DISL:1,2010-09-03T20:00:00Z,30.2513,-88.0778,6.241,17.95,1111122 
DISL,ioos:station:DISL:DISL:1,2010-09-03T20:30:00Z,30.2513,-88.0778,6.139,18.01,1111122 
DISL,ioos:station:DISL:DISL:1,2010-09-03T21:00:00Z,30.2513,-88.0778,6.073,18.46,1111122 
DISL,ioos:station:DISL:DISL:1,2010-09-03T21:30:00Z,30.2513,-88.0778,6.0,18.76,1111122 
DISL,ioos:station:DISL:DISL:1,2010-09-03T22:00:00Z,30.2513,-88.0778,6.039,18.87,1111122 
DISL,ioos:station:DISL:DISL:1,2010-09-03T22:30:00Z,30.2513,-88.0778,6.027,18.6,1111122 
DISL,ioos:station:DISL:DISL:1,2010-09-03T23:00:00Z,30.2513,-88.0778,6.032,18.41,1111122 
DISL,ioos:station:DISL:DISL:1,2010-09-03T23:30:00Z,30.2513,-88.0778,6.006,18.48,1111122 
DISL,ioos:station:DISL:DISL:1,2010-09-04T00:00:00Z,30.2513,-88.0778,6.079,18.81,1111122 
DISL,ioos:station:DISL:DISL:1,2010-09-04T00:30:00Z,30.2513,-88.0778,6.097,19.14,1111122 
DISL,ioos:station:DISL:DISL:1,2010-09-04T01:00:00Z,30.2513,-88.0778,6.193,19.29,1111122 
DISL,ioos:station:DISL:DISL:1,2010-09-04T01:30:00Z,30.2513,-88.0778,6.249,19.39,1111122 
DISL,ioos:station:DISL:DISL:1,2010-09-04T02:00:00Z,30.2513,-88.0778,6.333,20.0,1111122 
DISL,ioos:station:DISL:DISL:1,2010-09-04T02:30:00Z,30.2513,-88.0778,6.433,20.67,1111122 
DISL,ioos:station:DISL:DISL:1,2010-09-04T03:00:00Z,30.2513,-88.0778,6.536,21.01,1111122 
DISL,ioos:station:DISL:DISL:1,2010-09-04T03:30:00Z,30.2513,-88.0778,6.599,21.5,1111122 
DISL,ioos:station:DISL:DISL:1,2010-09-04T04:00:00Z,30.2513,-88.0778,6.68,21.83,1111122 
DISL,ioos:station:DISL:DISL:1,2010-09-04T04:30:00Z,30.2513,-88.0778,6.808,22.02,1111122 
DISL,ioos:station:DISL:DISL:1,2010-09-04T05:00:00Z,30.2513,-88.0778,6.912,22.16,1111122 
DISL,ioos:station:DISL:DISL:1,2010-09-04T05:30:00Z,30.2513,-88.0778,6.945,22.27,1111122 
DISL,ioos:station:DISL:DISL:1,2010-09-04T06:00:00Z,30.2513,-88.0778,7.01,22.42,1111122 
DISL,ioos:station:DISL:DISL:1,2010-09-04T06:30:00Z,30.2513,-88.0778,7.13,22.51,1111122 
DISL,ioos:station:DISL:DISL:1,2010-09-04T07:00:00Z,30.2513,-88.0778,7.23,22.53,1111122 
DISL,ioos:station:DISL:DISL:1,2010-09-04T07:30:00Z,30.2513,-88.0778,7.31,22.54,1111122 
DISL,ioos:station:DISL:DISL:1,2010-09-04T08:00:00Z,30.2513,-88.0778,7.43,22.54,1111122 
DISL,ioos:station:DISL:DISL:1,2010-09-04T08:30:00Z,30.2513,-88.0778,7.49,22.5,1111122 
DISL,ioos:station:DISL:DISL:1,2010-09-04T09:00:00Z,30.2513,-88.0778,7.56,22.47,1111122 
DISL,ioos:station:DISL:DISL:1,2010-09-04T09:30:00Z,30.2513,-88.0778,7.54,22.4,1111122 
DISL,ioos:station:DISL:DISL:1,2010-09-04T10:00:00Z,30.2513,-88.0778,7.57,22.33,1111122 
DISL,ioos:station:DISL:DISL:1,2010-09-04T10:30:00Z,30.2513,-88.0778,7.65,22.32,1111122 
DISL,ioos:station:DISL:DISL:1,2010-09-04T11:00:00Z,30.2513,-88.0778,7.66,22.0,1111122 
DISL,ioos:station:DISL:DISL:1,2010-09-04T11:30:00Z,30.2513,-88.0778,7.64,22.11,1111122 
DISL,ioos:station:DISL:DISL:1,2010-09-04T12:00:00Z,30.2513,-88.0778,7.68,19.77,1111122 
DISL,ioos:station:DISL:DISL:1,2010-09-04T12:30:00Z,30.2513,-88.0778,7.66,19.08,1111122 
DISL,ioos:station:DISL:DISL:1,2010-09-04T13:00:00Z,30.2513,-88.0778,7.38,19.28,1111122 
DISL,ioos:station:DISL:DISL:1,2010-09-04T13:30:00Z,30.2513,-88.0778,7.54,18.99,1111122 
DISL,ioos:station:DISL:DISL:1,2010-09-04T14:00:00Z,30.2513,-88.0778,7.49,19.19,1111122 
DISL,ioos:station:DISL:DISL:1,2010-09-04T14:30:00Z,30.2513,-88.0778,7.33,19.23,1111122 
DISL,ioos:station:DISL:DISL:1,2010-09-04T15:00:00Z,30.2513,-88.0778,7.2,19.33,1111122 
DISL,ioos:station:DISL:DISL:1,2010-09-04T15:30:00Z,30.2513,-88.0778,6.989,19.15,1111122 
DISL,ioos:station:DISL:DISL:1,2010-09-04T16:00:00Z,30.2513,-88.0778,7.14,19.25,1111122 
DISL,ioos:station:DISL:DISL:1,2010-09-04T16:30:00Z,30.2513,-88.0778,6.849,19.49,1111122 
DISL,ioos:station:DISL:DISL:1,2010-09-04T17:00:00Z,30.2513,-88.0778,6.71,20.52,1111122 
DISL,ioos:station:DISL:DISL:1,2010-09-04T17:30:00Z,30.2513,-88.0778,6.606,20.01,1111122 
DISL,ioos:station:DISL:DISL:1,2010-09-04T18:00:00Z,30.2513,-88.0778,6.518,19.96,1111122 
DISL,ioos:station:DISL:DISL:1,2010-09-04T18:30:00Z,30.2513,-88.0778,6.42,20.72,1111122 
DISL,ioos:station:DISL:DISL:1,2010-09-04T19:00:00Z,30.2513,-88.0778,6.344,20.57,1111122 
DISL,ioos:station:DISL:DISL:1,2010-09-04T19:30:00Z,30.2513,-88.0778,6.271,20.71,1111122 
DISL,ioos:station:DISL:DISL:1,2010-09-04T20:00:00Z,30.2513,-88.0778,6.209,20.75,1111122 
DISL,ioos:station:DISL:DISL:1,2010-09-04T20:30:00Z,30.2513,-88.0778,6.124,20.82,1111122 
DISL,ioos:station:DISL:DISL:1,2010-09-04T21:00:00Z,30.2513,-88.0778,6.05,20.82,1111122 
DISL,ioos:station:DISL:DISL:1,2010-09-04T21:30:00Z,30.2513,-88.0778,6.036,20.96,1111122 
DISL,ioos:station:DISL:DISL:1,2010-09-04T22:00:00Z,30.2513,-88.0778,5.991,21.07,1111122 
DISL,ioos:station:DISL:DISL:1,2010-09-04T22:30:00Z,30.2513,-88.0778,5.947,21.05,1111122 
DISL,ioos:station:DISL:DISL:1,2010-09-04T23:00:00Z,30.2513,-88.0778,5.935,20.49,1111122 
DISL,ioos:station:DISL:DISL:1,2010-09-04T23:30:00Z,30.2513,-88.0778,5.92,20.41,1111122 
DISL,ioos:station:DISL:DISL:1,2010-09-05T00:00:00Z,30.2513,-88.0778,5.949,20.32,1111122 
DISL,ioos:station:DISL:DISL:1,2010-09-05T00:30:00Z,30.2513,-88.0778,5.947,19.71,1111122 
DISL,ioos:station:DISL:DISL:1,2010-09-05T01:00:00Z,30.2513,-88.0778,6.03,19.33,1111122 
DISL,ioos:station:DISL:DISL:1,2010-09-05T01:30:00Z,30.2513,-88.0778,6.036,20.63,1111122 
DISL,ioos:station:DISL:DISL:1,2010-09-05T02:00:00Z,30.2513,-88.0778,6.106,21.86,1111122 
DISL,ioos:station:DISL:DISL:1,2010-09-05T02:30:00Z,30.2513,-88.0778,6.11,22.19,1111122 
DISL,ioos:station:DISL:DISL:1,2010-09-05T03:00:00Z,30.2513,-88.0778,6.206,20.91,1111122 
DISL,ioos:station:DISL:DISL:1,2010-09-05T03:30:00Z,30.2513,-88.0778,6.26,20.72,1111122 
DISL,ioos:station:DISL:DISL:1,2010-09-05T04:00:00Z,30.2513,-88.0778,6.369,20.5,1111122 
DISL,ioos:station:DISL:DISL:1,2010-09-05T04:30:00Z,30.2513,-88.0778,6.465,20.7,1111122 
DISL,ioos:station:DISL:DISL:1,2010-09-05T05:00:00Z,30.2513,-88.0778,6.622,20.55,1111122 
DISL,ioos:station:DISL:DISL:1,2010-09-05T05:30:00Z,30.2513,-88.0778,6.704,20.45,1111122 
DISL,ioos:station:DISL:DISL:1,2010-09-05T06:00:00Z,30.2513,-88.0778,6.76,20.43,1111122 
DISL,ioos:station:DISL:DISL:1,2010-09-05T06:30:00Z,30.2513,-88.0778,6.8,22.78,1111122 
DISL,ioos:station:DISL:DISL:1,2010-09-05T07:00:00Z,30.2513,-88.0778,6.888,25.09,1111122 
DISL,ioos:station:DISL:DISL:1,2010-09-05T07:30:00Z,30.2513,-88.0778,6.95,25.24,1111122 
DISL,ioos:station:DISL:DISL:1,2010-09-05T08:00:00Z,30.2513,-88.0778,7.28,25.21,1111122 
DISL,ioos:station:DISL:DISL:1,2010-09-05T08:30:00Z,30.2513,-88.0778,6.908,25.19,1111122 
DISL,ioos:station:DISL:DISL:1,2010-09-05T09:00:00Z,30.2513,-88.0778,7.11,25.9,1111122 
DISL,ioos:station:DISL:DISL:1,2010-09-05T09:30:00Z,30.2513,-88.0778,7.47,25.87,1111122 
DISL,ioos:station:DISL:DISL:1,2010-09-05T10:00:00Z,30.2513,-88.0778,7.32,25.75,1111122 
DISL,ioos:station:DISL:DISL:1,2010-09-05T10:30:00Z,30.2513,-88.0778,7.35,25.63,1111122 
DISL,ioos:station:DISL:DISL:1,2010-09-05T11:00:00Z,30.2513,-88.0778,7.36,25.54,1111122 
DISL,ioos:station:DISL:DISL:1,2010-09-05T11:30:00Z,30.2513,-88.0778,7.41,25.22,1111122 
DISL,ioos:station:DISL:DISL:1,2010-09-05T12:00:00Z,30.2513,-88.0778,7.41,24.65,1111122 
DISL,ioos:station:DISL:DISL:1,2010-09-05T12:30:00Z,30.2513,-88.0778,7.42,25.08,1111122 
DISL,ioos:station:DISL:DISL:1,2010-09-05T13:00:00Z,30.2513,-88.0778,7.61,25.11,1111122 
DISL,ioos:station:DISL:DISL:1,2010-09-05T13:30:00Z,30.2513,-88.0778,7.44,24.82,1111122 
DISL,ioos:station:DISL:DISL:1,2010-09-05T14:00:00Z,30.2513,-88.0778,7.53,23.13,1111122 
DISL,ioos:station:DISL:DISL:1,2010-09-05T14:30:00Z,30.2513,-88.0778,7.47,22.98,1111122 
DISL,ioos:station:DISL:DISL:1,2010-09-05T15:00:00Z,30.2513,-88.0778,7.4,22.04,1111122 
DISL,ioos:station:DISL:DISL:1,2010-09-05T15:30:00Z,30.2513,-88.0778,7.37,21.24,1111122 
DISL,ioos:station:DISL:DISL:1,2010-09-05T16:00:00Z,30.2513,-88.0778,7.28,20.93,1111122 
DISL,ioos:station:DISL:DISL:1,2010-09-05T16:30:00Z,30.2513,-88.0778,7.15,20.6,1111122 
DISL,ioos:station:DISL:DISL:1,2010-09-05T17:00:00Z,30.2513,-88.0778,7.07,20.35,1111122 
DISL,ioos:station:DISL:DISL:1,2010-09-05T17:30:00Z,30.2513,-88.0778,6.972,19.72,1111122 
DISL,ioos:station:DISL:DISL:1,2010-09-05T18:00:00Z,30.2513,-88.0778,6.898,19.74,1111122 
DISL,ioos:station:DISL:DISL:1,2010-09-05T18:30:00Z,30.2513,-88.0778,6.807,19.53,1111122 
DISL,ioos:station:DISL:DISL:1,2010-09-05T19:00:00Z,30.2513,-88.0778,6.704,19.68,1111122 
DISL,ioos:station:DISL:DISL:1,2010-09-05T19:30:00Z,30.2513,-88.0778,6.629,19.35,1111122 
DISL,ioos:station:DISL:DISL:1,2010-09-05T20:00:00Z,30.2513,-88.0778,6.544,19.66,1111122 
DISL,ioos:station:DISL:DISL:1,2010-09-05T20:30:00Z,30.2513,-88.0778,6.43,19.64,1111122 
DISL,ioos:station:DISL:DISL:1,2010-09-05T21:00:00Z,30.2513,-88.0778,6.297,19.77,1111122 
DISL,ioos:station:DISL:DISL:1,2010-09-05T21:30:00Z,30.2513,-88.0778,6.247,20.0,1111122 
DISL,ioos:station:DISL:DISL:1,2010-09-05T22:00:00Z,30.2513,-88.0778,6.225,20.05,1111122 
DISL,ioos:station:DISL:DISL:1,2010-09-05T22:30:00Z,30.2513,-88.0778,6.152,20.29,1111122 
DISL,ioos:station:DISL:DISL:1,2010-09-05T23:00:00Z,30.2513,-88.0778,6.157,20.41,1111122 
DISL,ioos:station:DISL:DISL:1,2010-09-05T23:30:00Z,30.2513,-88.0778,6.102,20.54,1111122 
DISL,ioos:station:DISL:DISL:1,2010-09-06T00:00:00Z,30.2513,-88.0778,6.118,20.8,1111122 
DISL,ioos:station:DISL:DISL:1,2010-09-06T00:30:00Z,30.2513,-88.0778,6.124,21.09,1111122 
DISL,ioos:station:DISL:DISL:1,2010-09-06T01:00:00Z,30.2513,-88.0778,6.134,20.98,1111122 
DISL,ioos:station:DISL:DISL:1,2010-09-06T01:30:00Z,30.2513,-88.0778,6.192,21.1,1111122 
DISL,ioos:station:DISL:DISL:1,2010-09-06T02:00:00Z,30.2513,-88.0778,6.208,21.37,1111122 
DISL,ioos:station:DISL:DISL:1,2010-09-06T02:30:00Z,30.2513,-88.0778,6.263,22.13,1111122 
DISL,ioos:station:DISL:DISL:1,2010-09-06T03:00:00Z,30.2513,-88.0778,6.291,21.59,1111122 
DISL,ioos:station:DISL:DISL:1,2010-09-06T03:30:00Z,30.2513,-88.0778,6.329,21.24,1111122 
DISL,ioos:station:DISL:DISL:1,2010-09-06T04:00:00Z,30.2513,-88.0778,6.384,21.01,1111122 
DISL,ioos:station:DISL:DISL:1,2010-09-06T04:30:00Z,30.2513,-88.0778,6.448,20.66,1111122 
DISL,ioos:station:DISL:DISL:1,2010-09-06T05:00:00Z,30.2513,-88.0778,6.602,20.55,1111122 
DISL,ioos:station:DISL:DISL:1,2010-09-06T05:30:00Z,30.2513,-88.0778,6.584,20.4,1111122 
DISL,ioos:station:DISL:DISL:1,2010-09-06T06:00:00Z,30.2513,-88.0778,6.662,20.96,1111122 
DISL,ioos:station:DISL:DISL:1,2010-09-06T06:30:00Z,30.2513,-88.0778,6.714,21.07,1111122 
DISL,ioos:station:DISL:DISL:1,2010-09-06T07:00:00Z,30.2513,-88.0778,6.781,22.79,1111122 
DISL,ioos:station:DISL:DISL:1,2010-09-06T07:30:00Z,30.2513,-88.0778,6.879,23.07,1111122 
DISL,ioos:station:DISL:DISL:1,2010-09-06T08:00:00Z,30.2513,-88.0778,6.985,24.41,1111122 
DISL,ioos:station:DISL:DISL:1,2010-09-06T08:30:00Z,30.2513,-88.0778,7.02,24.28,1111122 
DISL,ioos:station:DISL:DISL:1,2010-09-06T09:00:00Z,30.2513,-88.0778,7.12,24.21,1111122 
DISL,ioos:station:DISL:DISL:1,2010-09-06T09:30:00Z,30.2513,-88.0778,7.24,25.0,1111122 
DISL,ioos:station:DISL:DISL:1,2010-09-06T10:00:00Z,30.2513,-88.0778,7.33,25.9,1111122 
DISL,ioos:station:DISL:DISL:1,2010-09-06T10:30:00Z,30.2513,-88.0778,7.4,26.09,1111122 
DISL,ioos:station:DISL:DISL:1,2010-09-06T11:00:00Z,30.2513,-88.0778,7.47,25.59,1111122 
DISL,ioos:station:DISL:DISL:1,2010-09-06T11:30:00Z,30.2513,-88.0778,7.56,25.69,1111122 
DISL,ioos:station:DISL:DISL:1,2010-09-06T12:00:00Z,30.2513,-88.0778,7.61,24.32,1111122 
DISL,ioos:station:DISL:DISL:1,2010-09-06T12:30:00Z,30.2513,-88.0778,7.69,22.56,1111122 
DISL,ioos:station:DISL:DISL:1,2010-09-06T13:00:00Z,30.2513,-88.0778,7.69,22.62,1111122 
DISL,ioos:station:DISL:DISL:1,2010-09-06T13:30:00Z,30.2513,-88.0778,7.74,23.09,1111122 
DISL,ioos:station:DISL:DISL:1,2010-09-06T14:00:00Z,30.2513,-88.0778,7.74,23.05,1111122 
DISL,ioos:station:DISL:DISL:1,2010-09-06T14:30:00Z,30.2513,-88.0778,7.76,22.87,1111122 